Tracking 28081 objects as of 27-Sep-2023
HD Live streaming from Space Station
objects crossing your sky now

OBJECT P

Track OBJECT P now!
10-day predictions


NORAD ID: 55261
Int'l Code: 2023-007P
Perigee: 459.9 km
Apogee: 473.3 km
Inclination: 97.3 °
Period: 93.8 minutes
Semi major axis: 6837 km
RCS: Unknown
Launch date: January 15, 2023
Source: People's Republic of China (PRC)
Launch site: Taiyaun Space Center, China (TSC)
Your satellite tracking list
Your tracking list is empty




NASA's NSSDC Master Catalog

Two Line Element Set (TLE):
1 55261U 23007P   23270.09251008  .00031657  00000-0  91617-3 0  9999
2 55261  97.3457 342.4243 0009811 122.3321 237.8873 15.35492022 39004
Source of the keplerian elements: AFSPC